• MPC Preparation (Info)

  • MPEC 2023-S86 : 2022 UV24

    The following Minor Planet Electronic Circular may be linked-to from your own Web pages, but must not otherwise be redistributed electronically.

    A form allowing access to any MPEC is at the bottom of this page.


    Read MPEC 2023-S85 Read MPEC 2023-S87


    M.P.E.C. 2023-S86                            Issued 2023 September 19, 14:12 UT
    
         The Minor Planet Electronic Circulars contain information on unusual
             minor planets, routine data on comets and natural satellites,
             and occasional editorial announcements.  They are published
        on behalf of Division F of the International Astronomical Union by the
              Minor Planet Center, Smithsonian Astrophysical Observatory,
                              Cambridge, MA 02138, U.S.A.
    			  
                 Prepared using the Tamkin Foundation Computer Network
    
                                  MPC@CFA.HARVARD.EDU
                URL https://www.minorplanetcenter.net/    ISSN 1523-6714
    
                                    2022 UV24                                
    
    
                               Revision to MPEC 2022-V34                            
    
    Additional Observations:
         K22U24V  C2023 09 15.55628103 45 41.169+13 50 23.48         21.14GVES086F52
         K22U24V 1C2023 09 16.41308503 42 19.847+14 29 09.78         21.55GVES086G96
         K22U24V 1C2023 09 16.41826603 42 18.554+14 29 24.54         22.12GVES086G96
         K22U24V 1C2023 09 16.42859903 42 15.948+14 29 52.94         21.13GVES086G96
    
    Observer details:
    F52 Pan-STARRS 2, Haleakala.  Observers J. Bulger, K. Chambers, T. Dukes, T.
        Lowe, P. Minguez, A. Schultz, I. Smith.  Measurers S. Chastel, J.
        Fairlamb, M. Huber, Y. Ramanjooloo, R. Wainscoat, R. Weryk.  1.8-m
        Ritchey-Chretien + CCD.
    G96 Mt. Lemmon Survey.  Observer J. K. Hogan.  Measurers E. J. Christensen, D.
        Fay, J. B. Fazekas, D. C. Fuls, A. R. Gibbs, A. D. Grauer, H. Groeller, J.
        K. Hogan, R. A. Kowalski, S. M. Larson, G. J. Leonard, D. Rankin, R. L.
        Seaman, A. Serrano, F. C. Shelly, K. W. Wierzchos.  1.5-m reflector + 10K
        CCD.
    
    First and last observations above in comparison with prediction:
    Residuals in seconds of arc, reference and Delta-T
    230915 F52  0.6+  6.7+    230916 G96  0.7+  7.2+    MPO718928   +0.00 days
    
    Orbital elements:
    2022 UV24                                                Earth MOID = 0.1148 AU
    Epoch 2023 Sept. 13.0 TT = JDT 2460200.5                Veres                   
    M  88.25428              (2000.0)            P               Q                  
    n   0.95612145     Peri.  226.53448     -0.57835440     +0.81406703             
    a   1.0204554      Node     8.62126     -0.60865516     -0.38740252             
    e   0.3674320      Incl.   20.67479     -0.54318052     -0.43268251             
    P   1.03           H   22.27          G   0.15           U   2                  
    Residuals in seconds of arc
    220907 F52  0.0   0.0     221017 F51  0.1+  0.1-    221026 V06  0.2+  0.1+
    220907 F52  0.0   0.0     221017 F51  0.2+  0.0     221026 V06  0.1+  0.1+
    220907 F52  0.1-  0.1+    221017 F51  0.2-  0.0     230915 F52  0.0   0.2-
    220907 F52  0.0   0.1-    221020 F51  0.0   0.1-    230916 G96  0.0   0.3-
    220922 F52  0.0   0.1-    221020 F51  0.1-  0.3+    230916 G96  0.1+  0.3+
    220922 F52  0.1-  0.1-    221020 F51  0.2+  0.0     230916 G96  0.2-  0.3+
    220922 F52  0.1+  0.2+    221020 F51  0.2-  0.0
    221017 F51  0.1+  0.1-    221026 V06  0.2+  0.1+
    
    Ephemeris:
    2022 UV24                a,e,i = 1.02, 0.37, 21                  q = 0.6455
    Date    TT    R. A. (2000) Decl.     Delta      r    Elong.  Phase     V
    2023 08 20    04 49 18.0 -03 07 12   0.3520  0.9963    77.4    82.4    22.9
    ...
    2023 09 04    04 20 49.0 +05 39 01   0.3110  1.0879    96.3    67.2    22.3
    ...
    2023 09 12    03 58 22.9 +11 11 53   0.2889  1.1325   108.6    57.4    21.9
    ...
    2023 09 18    03 35 47.1 +15 41 44   0.2752  1.1639   119.0    49.0    21.6
    2023 09 19    03 31 26.8 +16 27 32   0.2734  1.1689   120.9    47.5    21.6
    2023 09 20    03 26 56.2 +17 13 20   0.2717  1.1739   122.7    46.0    21.5
    ...
    2023 09 26    02 56 18.1 +21 41 26   0.2650  1.2027   134.2    36.7    21.3
    ...
    2023 10 04    02 07 37.5 +26 39 56   0.2686  1.2381   148.7    24.8    21.0
    ...
    2023 10 19    00 37 49.1 +30 20 09   0.3201  1.2948   155.7    18.5    21.3
    
    A. U. Tomatic                (C) Copyright 2023 MPC           M.P.E.C. 2023-S86
    


    Read MPEC 2023-S85 Read MPEC 2023-S87


    MPEC number:

    Enter an MPEC number in one of the following forms:

    • 1997-B01 (the full form)
    • J97B01 (the packed version of the full form)
    • B01 (the abbreviated form)